Flag for U.S.A. Weather past 2 weeks in Sitka, Alaska, U.S.A.

Now
54 °F

Sunny.


Feels Like: 54 °F
Forecast: 49 / 63 °F
Wind: No wind

Location: Sitka Airport

Current Time: Sep 3, 2015 at 9:46:50 AM

Latest Report: Sep 3, 2015 at 8:53 AM


Visibility: 10 mi

Pressure: 30.05 "Hg

Humidity: 69%

Dew point: 44 °F

Location of SitkaLocation

Historic Weather in Sitka — Graph

°F

Sitka temperature yesterday

Maximum temperature yesterday: 66 °F (at 12:53 PM)
Minimum temperature yesterday: 44 °F (at 1:53 AM)
Average temperature yesterday: 56 °F

Past Weeks' High & Low Weather Summary

 TemperatureHumidityPressure
High67 °F (Aug 25, 4:53 PM)100% (Aug 19, 7:53 AM)30.13 "Hg (Aug 19, 7:53 AM)
Low44 °F (Sep 1, 1:53 AM)37% (Sep 2, 4:53 PM)28.97 "Hg (Aug 30, 11:53 AM)
Average54 °F87%29.73 "Hg
* Reported Aug 19 7:53 AM — Sep 3 7:53 AM, Sitka, Weather by CustomWeather, © 2015

Note: Actual official high and low records may vary slightly from our data, if they occured in-between our weather recording intervals... More about our weather records

Advertising

Sitka weather history for previous 24 hours

 ConditionsComfort  
Time TempWeatherWind HumidityBarometerVisibility
7:53 AM
Thu, Sep 3
52 °FSunny.3 mph77%30.05 "Hg10 mi
6:53 AM48 °FClear.3 mph80%30.03 "Hg10 mi
5:53 AM47 °FClear.No wind83%30.03 "Hg10 mi
4:53 AM48 °FClear.No wind80%30.02 "Hg10 mi
3:53 AM47 °FClear.No wind83%30.01 "Hg10 mi
2:53 AM49 °FClear.No wind74%29.99 "Hg10 mi
1:53 AM48 °FClear.No wind83%29.99 "Hg10 mi
12:53 AM49 °FClear.No wind80%29.98 "Hg10 mi
11:53 PM
Wed, Sep 2
51 °FClear.No wind77%29.97 "Hg10 mi
10:53 PM52 °FClear.No wind69%29.96 "Hg10 mi
9:53 PM53 °FClear.6 mph74%29.95 "Hg10 mi
8:53 PM56 °FSunny.5 mph60%29.94 "Hg10 mi
7:53 PM60 °FSunny.7 mph42%29.92 "Hg10 mi
6:53 PM63 °FSunny.6 mph38%29.91 "Hg10 mi
5:53 PM64 °FSunny.6 mph40%29.89 "Hg10 mi
4:53 PM65 °FSunny.10 mph37%29.88 "Hg10 mi
3:53 PM64 °FPassing clouds.5 mph38%29.88 "Hg10 mi
2:53 PM64 °FScattered clouds.6 mph41%29.87 "Hg10 mi
1:53 PM64 °FPassing clouds.6 mph41%29.85 "Hg10 mi
12:53 PM66 °FSunny.6 mph40%29.84 "Hg10 mi
11:53 AM63 °FSunny.5 mph43%29.84 "Hg10 mi
10:53 AM60 °FScattered clouds.9 mph46%29.82 "Hg10 mi
9:53 AM58 °FScattered clouds.13 mph54%29.82 "Hg10 mi
Weather by CustomWeather, © 2015

See weather overviewHow to use our weather pages